Location: Andrest
(43.3200°N, 0.0641°E)
Time: 22:00:01
(UTC+00:00)

CZ-2C R/B - Pass Details

Date: 01 December 2020
Orbit: 705 x 907 km, 98.1° (Epoch: 20 January)

Event Time Altitude Azimuth Distance (km) Brightness Sun altitude
Rises 18:53:10 0° 176° (S) 3,239 6.3 -26.3°
Reaches altitude 10° 18:55:33 10° 180° (S) 2,287 5.5 -26.7°
Maximum altitude 19:00:28 57° 259° (W) 866 3.5 -27.6°
Drops below altitude 10° 19:05:14 10° 339° (NNW) 2,211 5.5 -28.5°
Sets 19:07:31 0° 343° (NNW) 3,122 6.3 -28.9°
